This is the latest recevied weather packets stored in our database for station/object KB3KAV. If no packets are shown the sender has not sent any weather packets the latest 10 day(s).
| Time | Temp. | Humidity | Pressure | Rain* | Wind** | Luminosity | Snow |
|---|---|---|---|---|---|---|---|
| 1787843375 | 25° C | 79% | 1044.4 hPa | 0 mm | - | 643 W/m² | - |
| 1787842770 | 25° C | 80% | 1044.4 hPa | 0 mm | - | 319 W/m² | - |
| 1787842166 | 25° C | 82% | 1044.5 hPa | 0 mm | - | 447 W/m² | - |
| 1787841563 | 24.44° C | 82% | 1044.7 hPa | 0 mm | - | 323 W/m² | - |
| 1787840962 | 23.33° C | 84% | 1044.7 hPa | 0 mm | - | 657 W/m² | - |
| 1787840358 | 23.89° C | 84% | 1044.8 hPa | 0 mm | - | 630 W/m² | - |
| 1787839754 | 23.33° C | 86% | 1044.6 hPa | 0 mm | - | 277 W/m² | - |
| 1787839154 | 22.78° C | 89% | 1044.9 hPa | 0 mm | - | 319 W/m² | - |
| 1787838554 | 23.33° C | 88% | 1044.9 hPa | 0 mm | - | 328 W/m² | - |
| 1787837951 | 22.22° C | 91% | 1045 hPa | 0 mm | - | 299 W/m² | - |
| 1787837352 | 20.56° C | 93% | 1045.1 hPa | 0 mm | - | 228 W/m² | - |
| 1787836746 | 20° C | 95% | 1045.3 hPa | 0 mm | - | 150 W/m² | - |
| 1787836142 | 20° C | 95% | 1045.6 hPa | 0 mm | - | 110 W/m² | - |
| 1787835542 | 19.44° C | 95% | 1045.3 hPa | 0 mm | - | 211 W/m² | - |
| 1787834939 | 18.89° C | 95% | 1045.5 hPa | 0 mm | - | 111 W/m² | - |
| 1787834339 | 18.33° C | 95% | 1045.3 hPa | 0 mm | - | 191 W/m² | - |
| 1787833736 | 17.78° C | 95% | 1045.3 hPa | 0 mm | - | 67 W/m² | - |
| 1787833132 | 17.22° C | 95% | 1045.3 hPa | 0 mm | - | 70 W/m² | - |
| 1787832529 | 17.22° C | 95% | 1045.1 hPa | 0 mm | - | 117 W/m² | - |
| 1787831926 | 17.22° C | 95% | 1045.2 hPa | 0 mm | - | 61 W/m² | - |
| 1787831326 | 16.67° C | 95% | 1045.2 hPa | 0 mm | - | 57 W/m² | - |
| 1787830722 | 16.67° C | 95% | 1045 hPa | 0 mm | - | 40 W/m² | - |
| 1787830122 | 16.67° C | 95% | 1045.1 hPa | 0 mm | - | 22 W/m² | - |
| 1787829521 | 16.67° C | 95% | 1045.2 hPa | 0 mm | - | 20 W/m² | - |
| 1787828918 | 16.11° C | 95% | 1044.9 hPa | 0 mm | - | 11 W/m² | - |
* Rain latest hour (hover to see other rain measurements)
** Current wind speed in m/s (hover to see current wind gust speed)